Time,TemperatureF,DewpointF,PressureIn,WindDirection,WindDirectionDegrees,WindSpeedMPH,WindSpeedGustMPH,Humidity,HourlyPrecipIn,Conditions,Clouds,dailyrainin,SoftwareType,DateUTC
2013-08-19 00:09:00,66.1,65.0,30.09,SE,128,0.0,0.0,97,0.00,,,0.00,weatherlink.com 1.10,2013-08-19 05:09:00,
2013-08-19 00:25:00,66.0,65.0,30.09,SE,128,0.0,0.0,97,0.00,,,0.00,weatherlink.com 1.10,2013-08-19 05:25:00,
2013-08-19 00:42:00,65.8,65.0,30.09,SE,128,0.0,0.0,97,0.00,,,0.00,weatherlink.com 1.10,2013-08-19 05:42:00,
2013-08-19 00:59:00,65.8,65.0,30.08,SE,128,0.0,0.0,97,0.00,,,0.00,weatherlink.com 1.10,2013-08-19 05:59:00,
2013-08-19 01:16:00,65.7,65.0,30.08,SE,128,0.0,0.0,97,0.00,,,0.00,weatherlink.com 1.10,2013-08-19 06:16:00,
2013-08-19 01:33:00,65.2,64.0,30.08,SE,128,0.0,0.0,97,0.00,,,0.00,weatherlink.com 1.10,2013-08-19 06:33:00,
2013-08-19 01:49:00,64.9,64.0,30.07,SE,128,0.0,0.0,97,0.00,,,0.00,weatherlink.com 1.10,2013-08-19 06:49:00,
2013-08-19 02:05:00,64.7,64.0,30.08,SE,128,0.0,0.0,97,0.00,,,0.00,weatherlink.com 1.10,2013-08-19 07:05:00,
2013-08-19 02:21:00,64.8,64.0,30.07,SE,128,0.0,0.0,97,0.00,,,0.00,weatherlink.com 1.10,2013-08-19 07:21:00,
2013-08-19 02:37:00,64.6,64.0,30.07,SE,128,0.0,0.0,97,0.00,,,0.00,weatherlink.com 1.10,2013-08-19 07:37:00,
2013-08-19 02:54:00,64.5,64.0,30.07,SE,128,0.0,0.0,97,0.00,,,0.00,weatherlink.com 1.10,2013-08-19 07:54:00,
2013-08-19 03:10:00,64.3,63.0,30.07,SE,128,0.0,0.0,97,0.00,,,0.00,weatherlink.com 1.10,2013-08-19 08:10:00,
2013-08-19 03:26:00,64.3,64.0,30.07,SE,128,0.0,0.0,98,0.00,,,0.00,weatherlink.com 1.10,2013-08-19 08:26:00,
2013-08-19 03:43:00,63.9,63.0,30.07,SE,128,0.0,0.0,98,0.00,,,0.00,weatherlink.com 1.10,2013-08-19 08:43:00,
2013-08-19 03:59:00,63.2,63.0,30.07,SE,128,0.0,0.0,98,0.00,,,0.00,weatherlink.com 1.10,2013-08-19 08:59:00,
2013-08-19 04:16:00,63.2,63.0,30.07,SE,128,0.0,0.0,98,0.00,,,0.00,weatherlink.com 1.10,2013-08-19 09:16:00,
2013-08-19 04:32:00,63.6,63.0,30.07,SE,128,0.0,0.0,98,0.00,,,0.00,weatherlink.com 1.10,2013-08-19 09:32:00,
2013-08-19 04:48:00,63.2,63.0,30.07,SE,128,0.0,0.0,98,0.00,,,0.00,weatherlink.com 1.10,2013-08-19 09:48:00,
2013-08-19 05:04:00,63.7,63.0,30.07,SE,128,0.0,0.0,98,0.00,,,0.00,weatherlink.com 1.10,2013-08-19 10:04:00,
2013-08-19 05:21:00,63.5,63.0,30.07,SE,128,0.0,0.0,98,0.00,,,0.00,weatherlink.com 1.10,2013-08-19 10:21:00,
2013-08-19 05:37:00,63.5,63.0,30.07,SE,128,0.0,0.0,98,0.00,,,0.00,weatherlink.com 1.10,2013-08-19 10:37:00,
2013-08-19 05:53:00,63.5,63.0,30.08,SE,128,0.0,0.0,98,0.00,,,0.00,weatherlink.com 1.10,2013-08-19 10:53:00,
2013-08-19 06:09:00,63.0,62.0,30.08,SE,128,0.0,0.0,98,0.00,,,0.00,weatherlink.com 1.10,2013-08-19 11:09:00,
2013-08-19 06:25:00,63.3,63.0,30.09,SE,128,0.0,0.0,98,0.00,,,0.00,weatherlink.com 1.10,2013-08-19 11:25:00,
2013-08-19 06:41:00,63.1,63.0,30.09,SE,128,0.0,0.0,98,0.00,,,0.00,weatherlink.com 1.10,2013-08-19 11:41:00,
2013-08-19 06:57:00,63.7,63.0,30.09,SE,128,0.0,0.0,98,0.00,,,0.00,weatherlink.com 1.10,2013-08-19 11:57:00,
2013-08-19 07:13:00,64.6,64.0,30.10,SE,128,0.0,0.0,98,0.00,,,0.00,weatherlink.com 1.10,2013-08-19 12:13:00,
2013-08-19 07:30:00,66.2,66.0,30.09,WSW,245,0.0,0.0,98,0.00,,,0.00,weatherlink.com 1.10,2013-08-19 12:30:00,
2013-08-19 07:46:00,67.2,67.0,30.10,WSW,245,0.0,0.0,98,0.01,,,0.01,weatherlink.com 1.10,2013-08-19 12:46:00,
2013-08-19 08:02:00,68.1,68.0,30.10,SSE,165,0.0,1.0,98,0.01,,,0.01,weatherlink.com 1.10,2013-08-19 13:02:00,
2013-08-19 08:20:00,68.4,68.0,30.11,SSE,159,1.0,3.0,98,0.01,,,0.01,weatherlink.com 1.10,2013-08-19 13:20:00,
2013-08-19 08:36:00,69.2,69.0,30.11,SW,217,0.0,3.0,98,0.00,,,0.01,weatherlink.com 1.10,2013-08-19 13:36:00,
2013-08-19 08:52:00,70.6,69.0,30.11,SSW,207,1.0,2.0,95,0.00,,,0.01,weatherlink.com 1.10,2013-08-19 13:52:00,
2013-08-19 09:08:00,73.2,70.0,30.11,SW,219,0.0,4.0,91,0.00,,,0.01,weatherlink.com 1.10,2013-08-19 14:08:00,
2013-08-19 09:25:00,73.8,70.0,30.11,SSW,210,0.0,2.0,88,0.00,,,0.01,weatherlink.com 1.10,2013-08-19 14:25:00,
2013-08-19 09:41:00,75.6,71.0,30.11,SW,221,1.0,2.0,87,0.00,,,0.01,weatherlink.com 1.10,2013-08-19 14:41:00,
2013-08-19 09:59:00,77.2,72.0,30.11,NNW,340,1.0,3.0,84,0.00,,,0.01,weatherlink.com 1.10,2013-08-19 14:59:00,
2013-08-19 10:16:00,78.4,71.0,30.11,NE,38,2.0,4.0,78,0.00,,,0.01,weatherlink.com 1.10,2013-08-19 15:16:00,
2013-08-19 10:32:00,77.8,71.0,30.11,NE,53,5.0,5.0,80,0.00,,,0.01,weatherlink.com 1.10,2013-08-19 15:32:00,
2013-08-19 10:48:00,78.9,71.0,30.11,SSE,168,1.0,4.0,76,0.00,,,0.01,weatherlink.com 1.10,2013-08-19 15:48:00,
2013-08-19 11:04:00,79.8,71.0,30.10,SSE,152,0.0,3.0,74,0.00,,,0.01,weatherlink.com 1.10,2013-08-19 16:04:00,
2013-08-19 11:21:00,79.6,70.0,30.10,South,187,1.0,5.0,72,0.00,,,0.01,weatherlink.com 1.10,2013-08-19 16:21:00,
2013-08-19 11:37:00,79.6,71.0,30.10,West,279,1.0,7.0,75,0.00,,,0.01,weatherlink.com 1.10,2013-08-19 16:37:00,
2013-08-19 11:53:00,81.2,70.0,30.10,SSW,202,3.0,6.0,70,0.00,,,0.01,weatherlink.com 1.10,2013-08-19 16:53:00,
2013-08-19 12:09:00,82.7,71.0,30.09,SSW,199,0.0,6.0,68,0.00,,,0.01,weatherlink.com 1.10,2013-08-19 17:09:00,
2013-08-19 12:25:00,82.9,71.0,30.09,SSW,211,2.0,4.0,68,0.00,,,0.01,weatherlink.com 1.10,2013-08-19 17:25:00,
2013-08-19 12:41:00,83.8,69.0,30.08,SE,126,1.0,5.0,62,0.00,,,0.01,weatherlink.com 1.10,2013-08-19 17:41:00,
2013-08-19 12:57:00,84.1,71.0,30.08,SE,129,0.0,4.0,65,0.00,,,0.01,weatherlink.com 1.10,2013-08-19 17:57:00,
2013-08-19 13:13:00,82.0,70.0,30.07,NNW,342,0.0,5.0,67,0.00,,,0.01,weatherlink.com 1.10,2013-08-19 18:13:00,
2013-08-19 13:29:00,82.8,70.0,30.06,NW,311,2.0,4.0,65,0.00,,,0.01,weatherlink.com 1.10,2013-08-19 18:29:00,
2013-08-19 13:45:00,84.0,71.0,30.06,NW,305,1.0,4.0,66,0.00,,,0.01,weatherlink.com 1.10,2013-08-19 18:45:00,
2013-08-19 14:01:00,82.2,70.0,30.06,NNE,23,0.0,3.0,66,0.00,,,0.01,weatherlink.com 1.10,2013-08-19 19:01:00,
2013-08-19 14:18:00,84.7,70.0,30.05,SSW,205,0.0,3.0,61,0.00,,,0.01,weatherlink.com 1.10,2013-08-19 19:18:00,
2013-08-19 14:35:00,84.8,70.0,30.04,SW,217,1.0,5.0,61,0.00,,,0.01,weatherlink.com 1.10,2013-08-19 19:35:00,
2013-08-19 14:51:00,84.7,69.0,30.04,WSW,252,0.0,4.0,60,0.00,,,0.01,weatherlink.com 1.10,2013-08-19 19:51:00,
2013-08-19 15:07:00,83.9,70.0,30.03,SW,214,1.0,6.0,63,0.00,,,0.01,weatherlink.com 1.10,2013-08-19 20:07:00,
2013-08-19 15:24:00,85.7,69.0,30.03,South,184,3.0,4.0,58,0.00,,,0.01,weatherlink.com 1.10,2013-08-19 20:24:00,
2013-08-19 15:40:00,86.0,73.0,30.03,NE,46,3.0,3.0,65,0.00,,,0.01,weatherlink.com 1.10,2013-08-19 20:40:00,
2013-08-19 15:56:00,83.3,70.0,30.03,NNE,30,0.0,2.0,65,0.00,,,0.01,weatherlink.com 1.10,2013-08-19 20:56:00,
2013-08-19 16:13:00,82.8,70.0,30.02,NE,50,0.0,2.0,65,0.00,,,0.01,weatherlink.com 1.10,2013-08-19 21:13:00,
2013-08-19 16:29:00,82.7,70.0,30.02,NE,54,0.0,2.0,65,0.00,,,0.01,weatherlink.com 1.10,2013-08-19 21:29:00,
2013-08-19 16:45:00,82.0,71.0,30.02,NE,54,0.0,1.0,69,0.00,,,0.01,weatherlink.com 1.10,2013-08-19 21:45:00,
2013-08-19 17:02:00,82.2,71.0,30.02,NNW,331,0.0,1.0,68,0.00,,,0.01,weatherlink.com 1.10,2013-08-19 22:02:00,
2013-08-19 17:18:00,82.3,70.0,30.02,North,360,0.0,0.0,67,0.00,,,0.01,weatherlink.com 1.10,2013-08-19 22:18:00,
2013-08-19 17:34:00,82.1,70.0,30.02,SW,234,0.0,0.0,67,0.00,,,0.01,weatherlink.com 1.10,2013-08-19 22:34:00,
2013-08-19 17:50:00,81.7,71.0,30.02,NW,310,0.0,1.0,70,0.00,,,0.01,weatherlink.com 1.10,2013-08-19 22:50:00,
2013-08-19 18:06:00,81.3,71.0,30.01,ENE,69,0.0,2.0,70,0.00,,,0.01,weatherlink.com 1.10,2013-08-19 23:06:00,
2013-08-19 18:23:00,80.8,70.0,30.01,East,86,0.0,2.0,70,0.00,,,0.01,weatherlink.com 1.10,2013-08-19 23:23:00,
2013-08-19 18:39:00,79.9,71.0,30.01,East,86,0.0,0.0,74,0.00,,,0.01,weatherlink.com 1.10,2013-08-19 23:39:00,
2013-08-19 18:55:00,79.2,69.0,30.01,East,86,0.0,0.0,72,0.00,,,0.01,weatherlink.com 1.10,2013-08-19 23:55:00,
2013-08-19 19:11:00,78.0,70.0,30.02,East,86,0.0,1.0,76,0.00,,,0.01,weatherlink.com 1.10,2013-08-20 00:11:00,
2013-08-19 19:28:00,76.8,70.0,30.02,NNW,346,0.0,1.0,79,0.00,,,0.01,weatherlink.com 1.10,2013-08-20 00:28:00,
2013-08-19 19:44:00,75.5,70.0,30.01,NNW,346,0.0,1.0,82,0.00,,,0.01,weatherlink.com 1.10,2013-08-20 00:44:00,
2013-08-19 20:00:00,74.4,70.0,30.02,NNW,346,0.0,0.0,86,0.00,,,0.01,weatherlink.com 1.10,2013-08-20 01:00:00,
2013-08-19 20:17:00,73.5,70.0,30.02,NNW,346,0.0,0.0,88,0.00,,,0.01,weatherlink.com 1.10,2013-08-20 01:17:00,
2013-08-19 20:33:00,72.4,69.0,30.02,NNW,346,0.0,0.0,90,0.00,,,0.01,weatherlink.com 1.10,2013-08-20 01:33:00,
2013-08-19 20:49:00,72.0,69.0,30.03,NNW,346,0.0,0.0,91,0.00,,,0.01,weatherlink.com 1.10,2013-08-20 01:49:00,
2013-08-19 21:06:00,71.9,69.0,30.04,NNW,346,0.0,0.0,92,0.00,,,0.01,weatherlink.com 1.10,2013-08-20 02:06:00,
2013-08-19 21:22:00,71.9,69.0,30.04,NNW,346,0.0,0.0,92,0.00,,,0.01,weatherlink.com 1.10,2013-08-20 02:22:00,
2013-08-19 21:38:00,71.9,69.0,30.05,NNW,346,0.0,0.0,92,0.00,,,0.01,weatherlink.com 1.10,2013-08-20 02:38:00,
2013-08-19 21:54:00,72.3,70.0,30.04,NNW,346,0.0,0.0,92,0.00,,,0.01,weatherlink.com 1.10,2013-08-20 02:54:00,
2013-08-19 22:10:00,72.2,70.0,30.05,NNW,346,0.0,0.0,92,0.00,,,0.01,weatherlink.com 1.10,2013-08-20 03:10:00,
2013-08-19 22:26:00,71.6,69.0,30.05,NNW,346,0.0,0.0,92,0.00,,,0.01,weatherlink.com 1.10,2013-08-20 03:26:00,
2013-08-19 22:42:00,71.3,69.0,30.05,NNW,346,0.0,0.0,93,0.00,,,0.01,weatherlink.com 1.10,2013-08-20 03:42:00,
2013-08-19 22:58:00,70.9,69.0,30.05,NNW,346,0.0,0.0,93,0.00,,,0.01,weatherlink.com 1.10,2013-08-20 03:58:00,
2013-08-19 23:15:00,70.2,68.0,30.05,NNW,346,0.0,0.0,94,0.00,,,0.01,weatherlink.com 1.10,2013-08-20 04:15:00,
2013-08-19 23:31:00,69.7,68.0,30.05,NNW,346,0.0,0.0,95,0.00,,,0.01,weatherlink.com 1.10,2013-08-20 04:31:00,
2013-08-19 23:47:00,69.5,68.0,30.05,NNW,346,0.0,0.0,96,0.00,,,0.01,weatherlink.com 1.10,2013-08-20 04:47:00,